STARLINK-1309, 45414

Orbit data source: Space-Track

STARLINK-1309, 45414 is a payload satellite owned by SpaceX/Seattle (US) in LEO that was launched on Wed, 18 Mar 2020 UTC via an FALCON 9 launch vehicle from the Air Force Eastern Test Range (AFETR). Payload-class satellites include a variety of spacecraft equipped with specific instruments for various scientific and technological missions. These include communications satellites like Starlink; space stations such as the ISS; scientific satellites like the Hubble; Earth observation satellites from companies like Planet Labs, Umbra, and HawkEye 360; GPS; miniature CubeSats for education and research; and military/defense satellites.

Loading next visibility...
Identifier
45414, 2020-019BG
Orbit
LEO
Country
Flag of USUS
Related business
Manufacturer
SpaceX/Seattle
Mission
Operational Commercial Communications
Bus & Motor
STARLINK, Unknown motor
Mass
260 kg wet, ~248 kg dry
Launch date (UTC)
2020-03-18 (6 years ago)
Launch vehicle
FALCON 9
Launch site
Air Force Eastern Test Range (AFETR)
Object type
Payload
Rocket body
Debris
Shape & HBR
Box + 1 Pan, 4.4 m
Radar Cross Section
13.562 m², Large (>1 m²)

Expand to show TLE details & history
Last TLE update: 17 hours ago

TLE from 17 hours ago
0 STARLINK-1309
1 45414U 20019BG  25260.23083523 -.00001770  00000-0 -99974-4 0  9990
2 45414  53.0524 195.3047 0001921  96.5748 263.5460 15.06392036303704
Epoch: 2025-09-17T05:32Z
TLE epoch observation values (Epoch: 2025-09-17T05:32:24.163Z)
Latitude
-0.00002°
Longitude
115.79425°
Altitude
548.265 km
Speed
7.589 km/s
True Right ascension
13h 01m 13s
True Declination
0° 00' 00"
Sunlit
Object was in daylight at epoch
Visualization orbit readout
Latitude
Unknown
Longitude
Unknown
Altitude
Unknown
Speed
Unknown
Apparent Right ascension
Unknown
Apparent Declination
Unknown
Sunlit
N/A
Visualization observer readout
Local Sidereal Time
15:31:29
Azimuth
Unknown
Elevation
Unknown
Doppler factor
Unknown
Orbital elements
Apogee altitude
548.837 km
Perigee altitude
546.177 km
Semi-major axis
6,925.644 km
Eccentricity
0.00019
Inclination
53.0524°
RAAN
195.3047°
Arg. of periapsis
96.5748°
True anomaly
263.52413°
Mean anomaly
263.546°
Eccentric anomaly
263.53506°
Mean motion
3.76576 °/min
Orbital period
95.6 mins
BSTAR
-0.000099974
Loading maneuver chart data...
Computing Atmospheric mass density...
Loading historical data...
Loading historical data...
Loading historical data...
Loading historical data...
Loading historical data...
Loading historical data...
Loading historical data...

Documentation

Showing up to 5 results
|